Location: Hokitika
(42.7170°S, 170.9670°E)
Time: 13:51:32
(UTC+13:00)

ISS - Visible Passes

Search period start: 24 January 2019 00:00
Search period end: 03 February 2019 00:00
Orbit: 404 x 410 km, 51.6° (Epoch: 24 January)

Date Brightness Start Highest point End Pass type
(mag) Time Alt. Az. Time Alt. Az. Time Alt. Az.
28 Jan -1.4 05:34:09 10° N 05:36:24 17° NE 05:38:40 10° E visible
30 Jan -2.8 05:27:29 16° NNW 05:29:51 40° NE 05:33:02 10° ESE visible
31 Jan -2.1 04:38:10 21° NE 04:38:35 22° NE 04:41:15 10° E visible
01 Feb -0.8 03:48:46 10° ENE 03:48:46 10° ENE 03:48:48 10° ENE visible
01 Feb -3.8 05:21:29 23° WNW 05:23:26 85° SW 05:26:49 10° SE visible
02 Feb -3.4 04:32:02 53° NE 04:32:02 53° NE 04:35:18 10° ESE visible
02 Feb -2.2 06:05:43 10° W 06:08:42 29° SSW 06:11:43 10° SE visible
